Regional Weather Roundup
Issued by NWS

Home | Current Version | Previous Version | Graphics & Text | Print | Product List | Glossary On
Versions: 1 2 3 4 5 6 7 8 9 10 11 12 13 14 15 16 17 18 19 20 21 22 23 24 25 26 27 28 29 30 31 32 33 34 35 36 37 38 39 40 41 42 43 44 45 46 47 48 49 50
000
ASUS43 KFSD 241102
RWRSD

WEATHER ROUNDUP FOR SOUTH DAKOTA
NATIONAL WEATHER SERVICE SIOUX FALLS SD
600 AM CDT SAT SEP 24 2016

NOTE: "FAIR" INDICATES FEW OR NO CLOUDS BELOW 12,000 FEET WITH NO
SIGNIFICANT WEATHER AND/OR OBSTRUCTIONS TO VISIBILITY.


SDZ001>005-009-010-012>017-241200-
NORTHWEST AND NORTH CENTRAL SOUTH DAKOTA

CITY           SKY/WX    TMP DP  RH WIND       PRES   REMARKS
BUFFALO          N/A     56  55  97 N16       29.67F
FAITH            N/A     59  59 100 NE8       29.69F
MOBRIDGE       PTCLDY    71  61  70 S21G28    29.70F
$$

SDZ012>016-024>037-041>051-057-063-072>074-241200-
SOUTHWEST AND SOUTH CENTRAL SOUTH DAKOTA

CITY           SKY/WX    TMP DP  RH WIND       PRES   REMARKS
RAPID CTY ARPT LGT RAIN  56  54  93 W8        29.77R
PIERRE         CLOUDY    67  61  81 SE17      29.69F
CUSTER         LGT RAIN  44  41  89 SW18G28   29.87R FOG
ELLSWORTH AFB  CLOUDY    56  56  99 N9        29.75
PHILIP         LGT RAIN  59  57  93 SW15G21   29.76R
PINE RIDGE     CLOUDY    52  45  77 SW16G26   29.87R
WINNER         FAIR      63  55  75 SE10      29.75F
$$

SDZ004>011-016>023-039-040-241200-
NORTHEAST SOUTH DAKOTA

CITY           SKY/WX    TMP DP  RH WIND       PRES   REMARKS
ABERDEEN       MOCLDY    70  63  78 SE17      29.81F
WATERTOWN      PTCLDY    68  64  87 SE15G24   29.91S
SISSETON         N/A     68  66  93 S13G20    29.90F
$$

SDZ017-020-022-023-036>040-048>070-241200-
SOUTHEAST SOUTH DAKOTA

CITY           SKY/WX    TMP DP  RH WIND       PRES   REMARKS
SIOUX FALLS    PTCLDY    70  64  81 SE15G24   29.92F
HURON          CLEAR     69  62  78 SE13      29.82F
CHAMBERLAIN    CLOUDY    70  65  84 SE12      29.78F
MITCHELL       CLOUDY    71  64  78 SE14      29.84F
YANKTON        CLOUDY    70  64  83 SE13      29.86F
$$

ABBREVIATIONS USED IN REMARKS
   TC - TEMPERATURE IN CELSIUS
  WCI - WIND CHILL INDEX
   HX - HEAT INDEX
  VSB - VISIBILITY





USA.gov is the U.S. government's official web portal to all federal, state and local government web resources and services.